New London Weather Center

Moon Phase Calendar



Online Cameras

 


      

Current Conditions in New London
5/25/2024 4:44:08 PM

69°F
Feels Like 68
Clear
Humidity
54%
Pressure
29.88"
Wind
8 mph (S)
Dew Point
52°F
UV Index
2/10 (Low)
Visibility
6 mi

Hourly Forecast

Date & Time Sat, May 25
4:00 PM
Sat, May 25
5:00 PM
Sat, May 25
6:00 PM
Sat, May 25
7:00 PM
Sat, May 25
8:00 PM
Sat, May 25
9:00 PM
Sat, May 25
10:00 PM
Sat, May 25
11:00 PM
Sun, May 26
12:00 AM
Sun, May 26
1:00 AM
Sun, May 26
2:00 AM
Sun, May 26
3:00 AM
Sun, May 26
4:00 AM
Sun, May 26
5:00 AM
Sun, May 26
6:00 AM
Sun, May 26
7:00 AM
Sun, May 26
8:00 AM
Sun, May 26
9:00 AM
Sun, May 26
10:00 AM
Sun, May 26
11:00 AM
Sun, May 26
12:00 PM
Sun, May 26
1:00 PM
Sun, May 26
2:00 PM
Sun, May 26
3:00 PM
Sun, May 26
4:00 PM
Sun, May 26
5:00 PM
Sun, May 26
6:00 PM
Sun, May 26
7:00 PM
Sun, May 26
8:00 PM
Sun, May 26
9:00 PM
Sun, May 26
10:00 PM
Sun, May 26
11:00 PM
Mon, May 27
12:00 AM
Mon, May 27
1:00 AM
Mon, May 27
2:00 AM
Mon, May 27
3:00 AM
Mon, May 27
4:00 AM
Mon, May 27
5:00 AM
Mon, May 27
6:00 AM
Mon, May 27
7:00 AM
Mon, May 27
8:00 AM
Mon, May 27
9:00 AM
Mon, May 27
10:00 AM
Mon, May 27
11:00 AM
Mon, May 27
12:00 PM
Mon, May 27
1:00 PM
Mon, May 27
2:00 PM
Mon, May 27
3:00 PM
Condition
Clouds

Clear

Clouds

Clouds

Clouds

Clouds

Clouds

Clouds

Clouds

Clouds

Clouds

Clouds

Clouds

Clouds

Clouds

Clouds

Clouds

Clouds

Clouds

Clouds

Clouds

Clouds

Clouds

Clouds

Clouds

Clouds

Clouds

Clouds

Clouds

Clouds

Clouds

Clouds

Clouds

Clouds

Clouds

Clouds

Clouds

Clouds

Clouds

Clouds

Clouds

Clouds

Clouds

Clouds

Clouds

Clouds

Rain

Rain
Temperature 68°F69°F68°F66°F63°F61°F59°F58°F58°F58°F58°F57°F57°F57°F58°F59°F61°F62°F62°F66°F65°F67°F67°F67°F67°F67°F66°F65°F62°F61°F61°F60°F60°F60°F60°F60°F60°F60°F60°F61°F62°F64°F64°F64°F64°F63°F63°F62°F
Feels Like 67°F68°F67°F65°F63°F60°F59°F58°F58°F58°F58°F57°F57°F57°F58°F59°F61°F62°F62°F66°F65°F67°F67°F67°F67°F67°F66°F65°F62°F61°F61°F60°F60°F60°F60°F60°F60°F60°F60°F61°F63°F64°F64°F64°F64°F64°F63°F63°F
Cloudiness 20%0%20%40%59%60%86%90%92%94%95%100%100%100%100%100%100%100%100%94%98%88%82%32%35%35%32%26%22%16%32%43%58%67%72%100%92%94%95%96%97%100%100%100%100%100%100%100%
Visibility 6 mi6 mi6 mi6 mi6 mi6 mi6 mi6 mi6 mi6 mi6 mi6 mi6 mi6 mi6 mi6 mi6 mi6 mi6 mi6 mi6 mi6 mi6 mi6 mi6 mi6 mi6 mi6 mi6 mi6 mi6 mi6 mi6 mi6 mi6 mi6 mi6 mi6 mi6 mi6 mi6 mi6 mi6 mi4 mi3 mi5 mi5 mi1 mi
Precipitation 0%0%0%0%0%0%0%0%0%0%0%0%0%0%0%0%0%0%0%0%0%0%0%0%0%0%0%0%0%0%0%0%0%0%0%0%0%0%0%0%0%0%0%0%0%0%39%100%
Humidity 57%54%58%64%71%76%82%84%89%93%95%97%97%97%95%93%88%87%88%80%82%77%78%79%81%81%83%89%95%97%98%98%98%98%98%98%98%98%98%97%96%93%93%92%92%93%94%99%
Dew Point 52°F52°F52°F53°F54°F53°F53°F53°F55°F56°F56°F56°F56°F56°F56°F57°F57°F57°F58°F59°F58°F58°F59°F59°F60°F60°F60°F61°F61°F60°F60°F59°F59°F59°F59°F59°F59°F59°F59°F60°F61°F61°F61°F61°F61°F61°F60°F61°F
Pressure 29.88"29.88"29.88"29.88"29.88"29.88"29.88"29.88"29.88"29.88"29.88"29.88"29.88"29.88"29.88"29.91"29.94"29.94"29.94"29.94"29.94"29.91"29.91"29.91"29.91"29.94"29.94"29.94"29.94"29.97"29.97"29.97"29.97"29.97"29.97"29.94"29.97"29.97"29.97"30"30"29.97"29.97"29.94"29.94"29.91"29.88"29.88"
Wind Speed 9.3 mph9.6 mph8.9 mph7.7 mph6 mph5.5 mph5.8 mph5.2 mph4.9 mph5.2 mph5.6 mph4.8 mph4.6 mph5.1 mph5.1 mph5.6 mph5.9 mph5.9 mph5.3 mph5.5 mph6.2 mph6.6 mph6.9 mph8.5 mph8.8 mph8.1 mph8.7 mph7.4 mph5.9 mph4.4 mph5.2 mph4 mph5.6 mph5.7 mph6.3 mph7.1 mph8 mph8.4 mph10.2 mph10.4 mph12.6 mph13.7 mph14 mph14.1 mph14.8 mph14.2 mph14.8 mph13.3 mph
Wind
Direction
172°
S
167°
SSE
163°
SSE
158°
SSE
162°
SSE
166°
SSE
182°
S
202°
SSW
221°
SW
219°
SW
218°
SW
229°
SW
193°
SSW
193°
SSW
174°
S
185°
S
202°
SSW
217°
SW
228°
SW
207°
SSW
180°
S
177°
S
166°
SSE
160°
SSE
162°
SSE
161°
SSE
160°
SSE
152°
SSE
132°
SE
109°
ESE
87°
E
112°
ESE
95°
E
78°
ENE
80°
E
78°
ENE
73°
ENE
66°
ENE
66°
ENE
75°
ENE
85°
E
96°
E
101°
E
109°
ESE
119°
ESE
118°
ESE
125°
SE
138°
SE

Daily Forecast

Date High Low Precip. Humidity
Today
May 25

Clouds
69 °F
57 °F
0%
67%
Sunday
May 26

Clouds
67 °F
57 °F
0%
82%
Monday
May 27

Rain
64 °F
60 °F
100%
92%
Tuesday
May 28

Rain
71 °F
60 °F
100%
85%
Wednesday
May 29

Rain
67 °F
57 °F
99%
77%
Thursday
May 30

Clouds
64 °F
55 °F
0%
63%
Friday
May 31

Clear
68 °F
50 °F
0%
49%
Saturday
Jun 1

Clouds
66 °F
53 °F
0%
46%
Sunday
Jun 2

Clouds
70 °F
57 °F
0%
66%
Monday
Jun 3

Rain
72 °F
62 °F
100%
76%
Tuesday
Jun 4

Rain
70 °F
58 °F
100%
71%
Wednesday
Jun 5

Clouds
70 °F
58 °F
0%
59%
Thursday
Jun 6

Clear
67 °F
58 °F
0%
66%
Friday
Jun 7

Clouds
69 °F
58 °F
0%
74%
Saturday
Jun 8

Rain
68 °F
62 °F
100%
78%
Sunday
Jun 9

Rain
72 °F
62 °F
100%
67%

Temperature 8-14 Day Outlook



Precipitation 8-14 Day Outlook






About Us
Contact Us
Site Map
Search Site
Advertise With Us
   
NewLondon.USCoast.info
THE NEW LONDON WEBSITE

Copyright 2024, Coastal Town
Privacy    |    Legal